STARLINK-3072, 49153

Orbit data source: Space-Track

STARLINK-3072, 49153 is a payload satellite owned by SpaceX/Seattle (US) in LEO that was launched on Tue, 14 Sep 2021 UTC via an FALCON 9 launch vehicle from the Air Force Western Test Range (AFWTR). Payload-class satellites include a variety of spacecraft equipped with specific instruments for various scientific and technological missions. These include communications satellites like Starlink; space stations such as the ISS; scientific satellites like the Hubble; Earth observation satellites from companies like Planet Labs, Umbra, and HawkEye 360; GPS; miniature CubeSats for education and research; and military/defense satellites.

Loading next visibility...
Identifier
49153, 2021-082Z
Orbit
LEO
Country
Flag of USUS
Related business
Manufacturer
SpaceX/Seattle
Mission
Operational Commercial Communications
Bus & Motor
STARLINK, Unknown motor
Mass
297 kg wet, ~275 kg dry
Launch date (UTC)
2021-09-14 (4 years ago)
Launch vehicle
FALCON 9
Launch site
Air Force Western Test Range (AFWTR)
Object type
Payload
Rocket body
Debris
Shape & HBR
Box + 1 Pan, 10.1 m
Radar Cross Section
13.562 m², Large (>1 m²)

Expand to show TLE details & history
Last TLE update: 10 hours ago

TLE from 10 hours ago
0 STARLINK-3072
1 49153U 21082Z   25311.12966945  .00001166  00000-0  10546-3 0  9992
2 49153  69.9993 203.4701 0002653 269.5566  90.5289 14.98333718229813
Epoch: 2025-11-07T03:06Z
TLE epoch observation values (Epoch: 2025-11-07T03:06:43.440Z)
Latitude
-0.00003°
Longitude
110.21103°
Altitude
574.486 km
Speed
7.574 km/s
True Right ascension
13h 33m 52s
True Declination
0° 00' 00"
Sunlit
Object was in daylight at epoch
Visualization orbit readout
Latitude
Unknown
Longitude
Unknown
Altitude
Unknown
Speed
Unknown
Apparent Right ascension
Unknown
Apparent Declination
Unknown
Sunlit
N/A
Visualization observer readout
Local Sidereal Time
08:45:07
Azimuth
Unknown
Elevation
Unknown
Doppler factor
Unknown
Orbital elements
Apogee altitude
571.836 km
Perigee altitude
568.149 km
Semi-major axis
6,948.13 km
Eccentricity
0.00027
Inclination
69.9993°
RAAN
203.4701°
Arg. of periapsis
269.5566°
True anomaly
90.5593°
Mean anomaly
90.5289°
Eccentric anomaly
90.5441°
Mean motion
3.7475 °/min
Orbital period
96.06 mins
BSTAR
0.00010546
Loading maneuver chart data...
Computing Atmospheric mass density...
Loading historical data...
Loading historical data...
Loading historical data...
Loading historical data...
Loading historical data...
Loading historical data...
Loading historical data...

Documentation

Showing up to 5 results
|